sat.trackr.live / text

‹ back to catalog

STARLINK-5440

NORAD 54785 · 2022-175AD

PAYLOAD ACTIVE UNKNOWN

§ Identity

Operator
Country
US
Launch date
2022-12-17
Launch site
AFETR
Launch vehicle
Mass (kg)
RCS (m²)

Purposes: comms

External: N2YO · Heavens-Above · Gunter

§ Orbital elements

Epoch: 2026-09-20T21:26:42.681984Z

Period
93.85 min
Inclination
53.1591°
Eccentricity
0.0001260
Mean motion
15.34388567 rev/d
Perigee alt
461.9 km
Apogee alt
463.6 km
Semi-major
6,840.9 km
B*
1.1953e-5
RAAN
177.8539°
Arg perigee
94.1514°
Mean anomaly
265.9633°
Rev number
21,036

§ Raw data

STARLINK-54401 54785U 22175AD  26263.89354956  .00000028  00000+0  11953-4 0  99962 54785  53.1591 177.8539 0001260  94.1514 265.9633 15.34388567210364

JSON: /api/v1/satellites/54785 · /tle

For live sub-satellite position, see the globe view (requires WebGL).

§ Visibility from observer

Set your observer location to see the next 7 days of passes ≥ 10°. The values pass through the URL so the page stays shareable.

No JS? Fill the form by hand. The geolocation button needs JavaScript.